Luverne, MN

12:00 AM CDT on July 30, 2016 (GMT -0500)
Luverne

Weather History for KLYV - October, 2013

Change the Weather History Date:

Thursday, October 3, 2013

  Actual Average (KFSD) Record (KFSD)
Temperature  
Mean Temperature 56 °F 53 °F  
Max Temperature 60 °F 66 °F 89 °F (1897)
Min Temperature 53 °F 41 °F 25 °F (1987)
Degree Days  
Heating Degree Days 8 12  
Month to date heating degree days 35  
Since 1 July heating degree days 239  
Cooling Degree Days 0 0  
Month to date cooling degree days 0  
Year to date cooling degree days 685  
Growing Degree Days 6 (Base 50)    
Moisture  
Dew Point 53 °F    
Average Humidity 88    
Maximum Humidity 94    
Minimum Humidity 77    
Precipitation  
Precipitation 0.16 in 0.09 in 1.10 in (1903)
Month to date precipitation 0.27  
Year to date precipitation 22.43  
Snow  
Snow 0.00 in 0.00 in T in (1950)
Month to date snowfall 0.0  
Since 1 July snowfall T  
Since 1 September snowfall T  
Snow Depth -    
Sea Level Pressure  
Sea Level Pressure 29.86 in    
Wind  
Wind Speed 7 mph (NE)    
Max Wind Speed 12 mph    
Max Gust Speed 17 mph    
Visibility 8 miles    
Events Rain    
T = Trace of Precipitation, MM = Missing Value Source: NWS Daily Summary

Daily Weather History Graph

Daily Weather History Graph

Search for Another Location

Airport or City:

Trip Planner

Search our weather history database for the weather conditions in past years. The results will help you decide how hot, cold, wet, or windy it might be!

Date:

Astronomy

Oct. 03, 2013 Rise Set
Actual Time 7:25 AM CDT 7:01 PM CDT
Civil Twilight 6:56 AM CDT 7:30 PM CDT
Nautical Twilight 6:23 AM CDT 8:03 PM CDT
Astronomical Twilight 5:49 AM CDT 8:36 PM CDT
Moon 5:57 AM CDT (10/3) 6:11 PM CDT (10/3)
Length of Visible Light 12h 33m
Length of Day
11h 36m
Waning Crescent, 2% of the Moon is Illuminated
Oct 3
Waning Crescent
Oct 4
New
Oct 11
First Quarter
Oct 18
Full
Oct 26
Last Quarter

Hourly Weather History & Observations

Time (CDT) Temp. Dew Point Humidity Pressure Visibility Wind Dir Wind Speed Gust Speed Precip Events Conditions
12:13 AM 60.8 °F 57.2 °F 88% 29.85 in 10.0 mi East 3.5 mph - N/A   Clear
12:33 AM 60.8 °F 57.2 °F 88% 29.83 in 10.0 mi NE 5.8 mph - N/A   Clear
12:53 AM 59.0 °F 55.4 °F 88% 29.84 in 10.0 mi NE 4.6 mph - N/A   Clear
1:13 AM 59.0 °F 55.4 °F 88% 29.84 in 10.0 mi Calm Calm - N/A   Scattered Clouds
1:32 AM 59.0 °F 55.4 °F 88% 29.85 in 7.0 mi NNE 4.6 mph - N/A   Scattered Clouds
1:53 AM 59.0 °F 55.4 °F 88% 29.85 in 10.0 mi NNE 5.8 mph - N/A   Clear
2:13 AM 59.0 °F 55.4 °F 88% 29.85 in 7.0 mi NE 6.9 mph - N/A   Scattered Clouds
2:33 AM 57.2 °F 53.6 °F 88% 29.85 in 7.0 mi NE 8.1 mph - N/A   Overcast
2:53 AM 55.4 °F 53.6 °F 94% 29.85 in 7.0 mi NE 8.1 mph - N/A   Overcast
3:12 AM 55.4 °F 53.6 °F 94% 29.84 in 7.0 mi NNE 6.9 mph - N/A   Overcast
3:33 AM 55.4 °F 51.8 °F 88% 29.84 in 7.0 mi NE 10.4 mph - N/A   Overcast
3:53 AM 55.4 °F 51.8 °F 88% 29.84 in 7.0 mi NE 9.2 mph - N/A   Overcast
4:13 AM 53.6 °F 51.8 °F 94% 29.83 in 7.0 mi NE 8.1 mph - N/A   Overcast
4:33 AM 53.6 °F 51.8 °F 94% 29.84 in 7.0 mi NE 8.1 mph - N/A   Overcast
4:52 AM 53.6 °F 51.8 °F 94% 29.84 in 7.0 mi NE 8.1 mph - N/A   Overcast
5:13 AM 53.6 °F 51.8 °F 94% 29.84 in 7.0 mi ENE 4.6 mph - N/A   Overcast
5:33 AM 53.6 °F 51.8 °F 94% 29.84 in 10.0 mi NE 5.8 mph - N/A   Overcast
5:53 AM 53.6 °F 51.8 °F 94% 29.83 in 10.0 mi NNE 9.2 mph - N/A   Overcast
6:12 AM 53.6 °F 51.8 °F 94% 29.83 in 10.0 mi NE 8.1 mph - N/A   Mostly Cloudy
6:33 AM 53.6 °F 51.8 °F 94% 29.83 in 10.0 mi NE 8.1 mph - N/A   Mostly Cloudy
6:52 AM 55.4 °F 51.8 °F 88% 29.84 in 10.0 mi ENE 5.8 mph - N/A   Overcast
7:13 AM 55.4 °F 51.8 °F 88% 29.84 in 10.0 mi NE 4.6 mph - N/A   Overcast
7:33 AM 55.4 °F 51.8 °F 88% 29.83 in 10.0 mi NE 9.2 mph - N/A   Overcast
7:53 AM 55.4 °F 51.8 °F 88% 29.82 in 10.0 mi NE 8.1 mph - N/A   Overcast
8:13 AM 55.4 °F 51.8 °F 88% 29.82 in 10.0 mi NNE 6.9 mph - N/A   Overcast
8:33 AM 55.4 °F 51.8 °F 88% 29.82 in 7.0 mi NE 6.9 mph - N/A   Overcast
8:52 AM 55.4 °F 53.6 °F 94% 29.82 in 7.0 mi NNE 6.9 mph - N/A   Overcast
9:13 AM 55.4 °F 53.6 °F 94% 29.83 in 5.0 mi NNE 5.8 mph - N/A   Overcast
9:33 AM 55.4 °F 53.6 °F 94% 29.83 in 3.0 mi NNE 4.6 mph - N/A   Overcast
9:53 AM 55.4 °F 53.6 °F 94% 29.84 in 4.0 mi North 3.5 mph - N/A   Overcast
10:13 AM 55.4 °F 53.6 °F 94% 29.85 in 4.0 mi ENE 4.6 mph - N/A   Overcast
10:33 AM 57.2 °F 53.6 °F 88% 29.85 in 7.0 mi ENE 8.1 mph - N/A   Overcast
10:52 AM 57.2 °F 53.6 °F 88% 29.85 in 10.0 mi ENE 5.8 mph - N/A   Overcast
11:13 AM 59.0 °F 53.6 °F 82% 29.85 in 7.0 mi ENE 6.9 mph - N/A   Overcast
11:33 AM 59.0 °F 53.6 °F 82% 29.86 in 7.0 mi NE 9.2 mph - N/A   Overcast
11:52 AM 59.0 °F 53.6 °F 82% 29.86 in 7.0 mi NE 9.2 mph - N/A   Overcast
12:13 PM 59.0 °F 53.6 °F 82% 29.86 in 10.0 mi NE 9.2 mph - N/A   Overcast
12:33 PM 60.8 °F 55.4 °F 82% 29.86 in 10.0 mi NE 9.2 mph - N/A   Overcast
12:52 PM 60.8 °F 53.6 °F 77% 29.86 in 10.0 mi NNE 5.8 mph - N/A   Overcast
1:13 PM 60.8 °F 53.6 °F 77% 29.86 in 10.0 mi North 6.9 mph - N/A   Overcast
1:32 PM 60.8 °F 53.6 °F 77% 29.87 in 10.0 mi NNE 5.8 mph - N/A   Overcast
1:53 PM 60.8 °F 53.6 °F 77% 29.87 in 10.0 mi NNE 5.8 mph - N/A   Overcast
2:13 PM 60.8 °F 53.6 °F 77% 29.84 in 10.0 mi North 11.5 mph - N/A   Overcast
2:32 PM 59.0 °F 53.6 °F 82% 29.86 in 10.0 mi North 8.1 mph - N/A   Overcast
2:53 PM 59.0 °F 53.6 °F 82% 29.87 in 10.0 mi North 9.2 mph - N/A   Overcast
3:13 PM 59.0 °F 53.6 °F 82% 29.87 in 10.0 mi North 5.8 mph - N/A   Overcast
3:32 PM 59.0 °F 53.6 °F 82% 29.87 in 10.0 mi North 9.2 mph - N/A Rain Rain
3:53 PM 59.0 °F 53.6 °F 82% 29.88 in 5.0 mi NNE 5.8 mph - 0.04 in Rain Rain
4:13 PM 57.2 °F 53.6 °F 88% 29.86 in 10.0 mi NNE 5.8 mph - 0.02 in Rain Rain
4:32 PM 57.2 °F 53.6 °F 88% 29.85 in 4.0 mi ENE 8.1 mph - 0.06 in Rain Rain
4:53 PM 57.2 °F 53.6 °F 88% 29.85 in 5.0 mi NE 6.9 mph - 0.12 in Rain Rain
5:13 PM 57.2 °F 53.6 °F 88% 29.84 in 10.0 mi NE 9.2 mph - N/A Rain Light Rain
5:32 PM 57.2 °F 53.6 °F 88% 29.85 in 10.0 mi NE 8.1 mph - N/A   Mostly Cloudy
5:53 PM 57.2 °F 53.6 °F 88% 29.84 in 10.0 mi ENE 10.4 mph - N/A   Mostly Cloudy
6:13 PM 57.2 °F 53.6 °F 88% 29.83 in 10.0 mi East 10.4 mph 17.3 mph N/A   Overcast
6:32 PM 57.2 °F 53.6 °F 88% 29.85 in 10.0 mi ENE 6.9 mph - N/A   Overcast
6:53 PM 57.2 °F 53.6 °F 88% 29.85 in 10.0 mi ENE 5.8 mph - N/A   Overcast
7:13 PM 57.2 °F 53.6 °F 88% 29.87 in 10.0 mi North 3.5 mph - N/A   Overcast
7:32 PM 57.2 °F 53.6 °F 88% 29.88 in 10.0 mi NNE 5.8 mph - N/A   Overcast
7:53 PM 57.2 °F 53.6 °F 88% 29.89 in 10.0 mi NNE 4.6 mph - N/A   Overcast
8:13 PM 57.2 °F 53.6 °F 88% 29.89 in 10.0 mi NNE 8.1 mph - N/A   Overcast
8:32 PM 57.2 °F 53.6 °F 88% 29.90 in 10.0 mi NNE 4.6 mph - N/A   Overcast
8:53 PM 57.2 °F 53.6 °F 88% 29.90 in 10.0 mi NNE 8.1 mph - N/A   Overcast
9:12 PM 55.4 °F 53.6 °F 94% 29.91 in 5.0 mi NNE 9.2 mph - N/A   Overcast
9:33 PM 55.4 °F 53.6 °F 94% 29.91 in 2.5 mi NNE 10.4 mph 16.1 mph N/A   Overcast
9:52 PM 55.4 °F 53.6 °F 94% 29.91 in 3.0 mi NNE 10.4 mph 17.3 mph N/A   Overcast
10:13 PM 55.4 °F 53.6 °F 94% 29.91 in 4.0 mi NNE 11.5 mph 16.1 mph N/A   Overcast
10:33 PM 55.4 °F 53.6 °F 94% 29.91 in 5.0 mi NNE 10.4 mph 17.3 mph N/A   Overcast
11:33 PM 55.4 °F 53.6 °F 94% 29.90 in 7.0 mi NNE 11.5 mph 16.1 mph N/A   Overcast
11:52 PM 55.4 °F 53.6 °F 94% 29.89 in 10.0 mi NE 10.4 mph 17.3 mph N/A   Overcast